This demonstration page uses our WeatherBlox Daily Observations layout. Learn more.

Left ArrowRight Arrow

Hourly Observations for August 15, 2021

Temp ( °F °C ) Dew Point ( °F °C ) Humidity (%) Winds ( mph kmh ) Pressure ( in mb ) Visibility ( mi km ) Precip ( " mm )
12:51 am 00:51 Clear 74 23.3 70 21.1 88 88 SE 3 6 29.98 1015 10 16 0.00 0.00
1:51 am 01:51 Clear 74 23.3 69 20.6 85 85 SE 6 9 29.97 1015 10 16 0.00 0.00
2:51 am 02:51 Partly Cloudy 74 23.3 68 20 82 82 ESE 7 11 29.96 1014 10 16 0.00 0.00
3:51 am 03:51 Cloudy 74 23.3 68 20 82 82 SSE 7 11 29.95 1014 10 16 0.00 0.00
4:51 am 04:51 Cloudy 74 23.3 68 20 82 82 ESE 5 7 29.97 1015 10 16 0.00 0.00
5:51 am 05:51 Cloudy 73 22.8 68 20 84 84 SE 7 11 29.99 1016 10 16 0.00 0.00
6:51 am 06:51 Sunny 75 23.9 68 20 79 79 S 6 9 29.99 1016 10 16 0.00 0.00
7:51 am 07:51 Mostly Sunny 77 25 67 19.4 71 71 SE 9 15 29.99 1016 10 16 0.00 0.00
8:51 am 08:51 Sunny 79 26.1 68 20 69 69 SSE 7 11 29.98 1015 10 16 0.00 0.00
9:51 am 09:51 Mostly Cloudy 81 27.2 67 19.4 62 62 SSE 6 9 29.97 1015 10 16 0.00 0.00
10:51 am 10:51 Partly Cloudy 83 28.3 66 18.9 57 57 SSE 5 7 29.96 1015 10 16 0.00 0.00
11:51 am 11:51 Sunny 86 30 66 18.9 51 51 VRB 6 9 29.92 1013 10 16 0.00 0.00
12:51 pm 12:51 Mostly Sunny 88 31.1 64 17.8 45 45 Calm 29.89 1012 10 16 0.00 0.00
1:51 pm 13:51 Mostly Sunny 92 33.3 63 17.2 38 38 SSE 13 20 29.85 1011 10 16 0.00 0.00
2:51 pm 14:51 Sunny 91 32.8 63 17.2 39 39 S 13 20 29.81 1010 10 16 0.00 0.00
3:51 pm 15:51 Mostly Sunny 92 33.3 63 17.2 38 38 undefined N/A 29.78 1009 10 16 0.00 0.00
4:51 pm 16:51 Mostly Cloudy 90 32.2 65 18.3 44 44 S 13 20 29.78 1009 10 16 0.00 0.00
5:51 pm 17:51 Sunny 89 31.7 64 17.8 43 43 S 13 20 29.78 1008 10 16 0.00 0.00
6:51 pm 18:51 Sunny 86 30 63 17.2 46 46 SSE 13 20 29.80 1009 10 16 0.00 0.00
7:51 pm 19:51 Clear 84 28.9 64 17.8 51 51 SE 8 13 29.81 1009 10 16 0.00 0.00
8:51 pm 20:51 Mostly Clear 82 27.8 65 18.3 56 56 E 6 9 29.83 1010 10 16 0.00 0.00
9:51 pm 21:51 Clear 81 27.2 66 18.9 61 61 E 7 11 29.84 1010 10 16 0.00 0.00
10:51 pm 22:51 Clear 81 27.2 65 18.3 58 58 E 3 6 29.83 1010 10 16 0.00 0.00
11:51 pm 23:51 Clear 79 26.1 65 18.3 62 62 ESE 3 6 29.81 1010 10 16 0.00 0.00

Powered by AerisWeather